Location: Makanda
(37.6176°N, 89.2090°W)
Time: 08:11:09
(UTC+00:00)

Hubble Space Telescope - Visible Passes

Search period start: 13 November 2019 00:00
Search period end: 23 November 2019 00:00
Orbit: 536 x 540 km, 28.5° (Epoch: 12 November)

Date Brightness Start Highest point End Pass type
(mag) Time Alt. Az. Time Alt. Az. Time Alt. Az.
18 Nov 3.3 00:48:59 10° SSW 00:49:56 12° S 00:49:56 12° S visible
19 Nov 3.0 00:37:51 10° SSW 00:39:59 15° S 00:39:59 15° S visible
20 Nov 2.7 00:26:52 10° SSW 00:29:37 17° SSE 00:30:01 17° SSE visible
21 Nov 2.6 00:15:58 10° SW 00:18:55 19° S 00:20:03 17° SSE visible
22 Nov 2.7 00:05:08 10° SW 00:08:14 21° S 00:10:04 16° SE visible
